User: anonymous   Login
Location: Newark
(35.6000°N, 117.0333°E)
Time: 22:51:11
(UTC+00:00)
Language:

Hubble Space Telescope - Orbit

View from above orbital plane
View from above orbital plane
View from above satellite
View from above satellite

Ground track
Ground track

The orbit data is extracted from the following two-line orbital elements,

1 20580U 90037B   19262.83591435 +.00000364 +00000-0 +11191-4 0  9992
2 20580 028.4700 316.0096 0002912 050.2070 279.3627 15.09267637414888
Epoch (UTC): 19 September 2019 20:03:43
Eccentricity: 0.0002912
inclination: 28.4700°
perigee height: 536 km
apogee height: 540 km
right ascension of ascending node: 316.0096°
argument of perigee: 50.2070°
revolutions per day: 15.09267637
mean anomaly at epoch: 279.3627°
orbit number at epoch: 41488

The dashed part of the orbit path shows where the satellite is in the earth's shadow,  

DLR